Weather in Kur'ya

Russia / Altai Krai     51°35′37″N   82°17′26″E
temp.,
°C
wind,
m/s
gust,
m/s
humid.,
%
clouds,
%
prec.,
mm/h
press.,
hPa
HPBL,
m
19 september, sun
sun1901:00+6ssw337424 0.0 101437
04:00+5s347558 0.0 101359
07:00+5s4774100 0.0 1012106
10:00+11s5115191 0.0 1009443
13:00+16ssw81234100 0.0 1008998
16:00+18sw81328100 0.0 10062145
19:00+14w61040100 0.0 1007619
22:00+8wsw345299 0.0 101072
20 september, mon
mon2001:00+6sw226899 0.0 101233
04:00+4sw3577100 0.0 101488
07:00+4wsw5107410 0.0 1017340
10:00+7wsw68565 0.0 10171088
13:00+10wsw793961 0.0 10171974
16:00+12wsw793382 0.0 10162189
19:00+10sw593867 0.0 1016506
22:00+6wsw3751100 0.0 1017130
21 september, tue
tue2101:00+4sw3460100 0.0 101893
04:00+2wsw367212 0.0 1019141
07:00+1sw368093 0.0 1020149
10:00+5wsw466192 0.0 1021973
13:00+6wsw455497 0.1 10201264
16:00+7w4549100 0.2 10201513
19:00+6wnw3553100 0.4 1021306
22:00+3nw246898 0.1 102288
22 september, wed
wed2201:00+1w117692 0.1 102413
04:00−1sw228344 0.0 102411
07:00−1ssw228280 0.0 102420
10:00+4sw3461100 0.0 1024501
13:00+7wsw4448100 0.1 10231612
16:00+8w4546100 0.1 10221589
19:00+5w225288 0.1 102237
22:00+2sw116528 0.0 102310
23 september, thu
thu2301:000s22728 0.0 102311
04:000s227466 0.0 102316
07:000sw2276100 0.0 102418
10:00+4wsw235776 0.0 1024463
13:00+8wsw4444100 0.0 10231438
16:00+9wsw3440100 0.0 10221624
19:00+7wsw2248100 0.0 102116
22:00+5s2254100 0.0 102122